Weather History for Kelso-Longview, WA

Change the Weather History Date:

Monday, September 30, 2013

  Actual Average Record
Temperature  
Mean Temperature 55 °F -  
Max Temperature 59 °F 66 °F 80 °F (1998)
Min Temperature 51 °F 46 °F 42 °F (1999)
Degree Days  
Heating Degree Days 10    
Growing Degree Days 5 (Base 50)    
Moisture  
Dew Point 47 °F    
Average Humidity 78    
Maximum Humidity 88    
Minimum Humidity 59    
Precipitation  
Precipitation 0.40 in - - ()
Sea Level Pressure  
Sea Level Pressure 29.83 in    
Wind  
Wind Speed 10 mph (South)    
Max Wind Speed 13 mph    
Max Gust Speed 21 mph    
Visibility 10 miles    
Events      
Averages and records for this station are not official NWS values.
T = Trace of Precipitation, MM = Missing Value Source: NWS Daily Summary

Daily Weather History Graph

Daily Weather History Graph

Search for Another Location

Airport:

Trip Planner

Search our weather history database for the weather conditions in past years. The results will help you decide how hot, cold, wet, or windy it might be!

Date:

Astronomy

Sep. 30, 2013 Rise Set
Actual Time 7:09 AM PDT 6:52 PM PDT
Civil Twilight 6:39 AM PDT 7:22 PM PDT
Nautical Twilight 6:04 AM PDT 7:57 PM PDT
Astronomical Twilight 5:29 AM PDT 8:32 PM PDT
Moon 2:39 AM PDT (9/30) 4:37 PM PDT (9/30)
Length of Visible Light 12h 43m
Length of Day
11h 43m
Waning Crescent, 18% of the Moon is Illuminated
Sep 30
Waning Crescent
Oct 4
New
Oct 11
First Quarter
Oct 18
Full
Oct 26
Last Quarter

Hourly Weather History & Observations

Time (PDT) Temp. Dew Point Humidity Pressure Visibility Wind Dir Wind Speed Gust Speed Precip Events Conditions
12:15 AM 51.8 °F 44.6 °F 76% 29.59 in 10.0 mi SSE 9.2 mph - N/A   Scattered Clouds
12:35 AM 51.8 °F 44.6 °F 76% 29.60 in 10.0 mi SSE 12.7 mph - N/A   Mostly Cloudy
12:55 AM 51.8 °F 44.6 °F 76% 29.60 in 10.0 mi South 10.4 mph - N/A   Partly Cloudy
1:15 AM 53.6 °F 44.6 °F 72% 29.60 in 10.0 mi SSE 10.4 mph 16.1 mph 0.01 in   Mostly Cloudy
1:35 AM 51.8 °F 46.4 °F 82% 29.61 in 10.0 mi South 9.2 mph - 0.01 in   Overcast
1:55 AM 51.8 °F 46.4 °F 82% 29.62 in 10.0 mi South 12.7 mph 19.6 mph 0.01 in   Overcast
2:15 AM 51.8 °F 46.4 °F 82% 29.63 in 10.0 mi SSE 12.7 mph 20.7 mph N/A   Overcast
2:35 AM 51.8 °F 44.6 °F 76% 29.62 in 10.0 mi North - - N/A   Overcast
2:55 AM 51.8 °F 44.6 °F 76% 29.63 in 10.0 mi North - - N/A   Overcast
3:15 AM 53.6 °F 44.6 °F 72% 29.63 in 10.0 mi North - - 0.01 in   Overcast
3:35 AM 51.8 °F 46.4 °F 82% 29.64 in 10.0 mi North - - 0.03 in   Overcast
3:55 AM 51.8 °F 46.4 °F 82% 29.65 in 10.0 mi North - - 0.04 in   Overcast
4:15 AM 51.8 °F 46.4 °F 82% 29.65 in 10.0 mi North - - 0.01 in   Overcast
4:35 AM 51.8 °F 46.4 °F 82% 29.65 in 10.0 mi North - - 0.01 in   Mostly Cloudy
4:55 AM 51.8 °F 46.4 °F 82% 29.67 in 10.0 mi North - - 0.02 in   Overcast
5:15 AM 51.8 °F 46.4 °F 82% 29.67 in 9.0 mi North - - 0.01 in   Mostly Cloudy
5:35 AM 51.8 °F 46.4 °F 82% 29.68 in 5.0 mi North - - 0.12 in   Overcast
5:55 AM 51.8 °F 46.4 °F 82% 29.68 in 10.0 mi North - - 0.14 in   Overcast
6:15 AM 51.8 °F 48.2 °F 88% 29.70 in 10.0 mi North - - N/A   Mostly Cloudy
6:35 AM 51.8 °F 48.2 °F 88% 29.70 in 10.0 mi North - - N/A   Overcast
6:55 AM 51.8 °F 48.2 °F 88% 29.72 in 10.0 mi SSE 12.7 mph 16.1 mph 0.01 in   Overcast
7:15 AM 51.8 °F 48.2 °F 88% 29.72 in 10.0 mi North - - N/A   Mostly Cloudy
7:35 AM 51.8 °F 46.4 °F 82% 29.74 in 10.0 mi North - - N/A   Mostly Cloudy
7:55 AM 51.8 °F 48.2 °F 88% 29.74 in 10.0 mi North - - N/A   Overcast
8:15 AM 51.8 °F 48.2 °F 88% 29.76 in 10.0 mi North - - N/A   Mostly Cloudy
8:35 AM 51.8 °F 48.2 °F 88% 29.77 in 10.0 mi North - - N/A   Overcast
8:55 AM 51.8 °F 48.2 °F 88% 29.78 in 10.0 mi North - - 0.01 in   Overcast
9:15 AM 53.6 °F 48.2 °F 82% 29.79 in 10.0 mi SSE 12.7 mph 18.4 mph N/A   Overcast
9:35 AM 53.6 °F 48.2 °F 82% 29.80 in 10.0 mi SSE 10.4 mph 16.1 mph N/A   Overcast
9:55 AM 53.6 °F 48.2 °F 82% 29.81 in 10.0 mi North - - N/A   Overcast
10:15 AM 53.6 °F 50.0 °F 88% 29.82 in 10.0 mi North - - N/A   Overcast
10:35 AM 53.6 °F 48.2 °F 82% 29.83 in 9.0 mi SSE 8.1 mph 18.4 mph 0.03 in   Overcast
10:55 AM 53.6 °F 48.2 °F 82% 29.84 in 8.0 mi SSE 12.7 mph 19.6 mph 0.07 in   Overcast
11:15 AM 53.6 °F 48.2 °F 82% 29.86 in 10.0 mi North - - 0.01 in   Mostly Cloudy
11:35 AM 53.6 °F 46.4 °F 77% 29.86 in 10.0 mi South 9.2 mph - 0.02 in   Overcast
11:55 AM 53.6 °F 48.2 °F 82% 29.86 in 10.0 mi SSE 8.1 mph - 0.02 in   Overcast
12:15 PM 55.4 °F 50.0 °F 82% 29.86 in 10.0 mi South 8.1 mph - N/A   Partly Cloudy
12:35 PM 57.2 °F 48.2 °F 72% 29.88 in 10.0 mi South 10.4 mph - N/A   Partly Cloudy
12:55 PM 57.2 °F 48.2 °F 72% 29.89 in 10.0 mi South 6.9 mph - N/A   Mostly Cloudy
1:15 PM 55.4 °F 48.2 °F 77% 29.90 in 7.0 mi West 10.4 mph - 0.05 in   Overcast
1:35 PM 55.4 °F 50.0 °F 82% 29.90 in 10.0 mi SSW 10.4 mph - 0.06 in   Overcast
1:55 PM 57.2 °F 48.2 °F 72% 29.92 in 10.0 mi North - - 0.06 in   Overcast
2:15 PM 59.0 °F 48.2 °F 67% 29.91 in 10.0 mi North - - N/A   Overcast
2:35 PM 59.0 °F 48.2 °F 67% 29.91 in 10.0 mi North - - N/A   Scattered Clouds
2:55 PM 59.0 °F 46.4 °F 63% 29.92 in 10.0 mi SSW 8.1 mph - N/A   Mostly Cloudy
3:15 PM 57.2 °F 46.4 °F 67% 29.93 in 10.0 mi North - - N/A   Mostly Cloudy
3:35 PM 59.0 °F 46.4 °F 63% 29.93 in 10.0 mi North - - N/A   Overcast
3:55 PM 59.0 °F 44.6 °F 59% 29.94 in 10.0 mi SSW 8.1 mph 20.7 mph N/A   Overcast
4:15 PM 59.0 °F 44.6 °F 59% 29.94 in 10.0 mi SSW 9.2 mph 16.1 mph N/A   Scattered Clouds
4:35 PM 59.0 °F 46.4 °F 63% 29.94 in 10.0 mi North - - N/A   Mostly Cloudy
4:55 PM 55.4 °F 46.4 °F 72% 29.96 in 9.0 mi North - - 0.02 in   Overcast
5:15 PM 55.4 °F 46.4 °F 72% 29.96 in 10.0 mi North - - N/A   Overcast
5:35 PM 57.2 °F 46.4 °F 67% 29.97 in 10.0 mi South 8.1 mph - N/A   Mostly Cloudy
5:55 PM 55.4 °F 46.4 °F 72% 29.96 in 10.0 mi South 8.1 mph - N/A   Partly Cloudy
6:15 PM 55.4 °F 46.4 °F 72% 29.96 in 10.0 mi SSE 4.6 mph - N/A   Clear
6:35 PM 53.6 °F 46.4 °F 77% 29.97 in 10.0 mi SSE 6.9 mph - N/A   Mostly Cloudy
6:55 PM 53.6 °F 46.4 °F 77% 29.97 in 10.0 mi South 5.8 mph - N/A   Mostly Cloudy
7:15 PM 53.6 °F 46.4 °F 77% 29.97 in 10.0 mi North - - N/A   Mostly Cloudy
7:35 PM 53.6 °F 46.4 °F 77% 29.98 in 10.0 mi North - - N/A   Mostly Cloudy
7:55 PM 53.6 °F 46.4 °F 77% 29.99 in 10.0 mi North - - N/A   Overcast
8:15 PM 53.6 °F 46.4 °F 77% 30.00 in 10.0 mi North - - N/A   Overcast
8:35 PM 51.8 °F 46.4 °F 82% 30.00 in 10.0 mi North - - N/A   Overcast
8:55 PM 51.8 °F 46.4 °F 82% 30.00 in 10.0 mi North - - N/A   Partly Cloudy
9:15 PM 51.8 °F 46.4 °F 82% 30.00 in 10.0 mi North - - N/A   Clear
9:35 PM 51.8 °F 46.4 °F 82% 30.00 in 10.0 mi North - - N/A   Clear
9:55 PM 51.8 °F 46.4 °F 82% 30.00 in 10.0 mi North - - N/A   Partly Cloudy
10:15 PM 51.8 °F 46.4 °F 82% 30.00 in 10.0 mi North - - N/A   Mostly Cloudy
10:35 PM 51.8 °F 46.4 °F 82% 30.01 in 10.0 mi SSE 8.1 mph - N/A   Overcast
10:55 PM 51.8 °F 46.4 °F 82% 30.01 in 10.0 mi North - - N/A   Overcast
11:15 PM 51.8 °F 46.4 °F 82% 30.01 in 10.0 mi North - - N/A   Overcast
11:35 PM 51.8 °F 46.4 °F 82% 30.00 in 10.0 mi North - - N/A   Overcast
11:55 PM 51.8 °F 46.4 °F 82% 30.00 in 10.0 mi North - - N/A   Overcast